Location: Unnamed
(47.6578°N, 23.5640°E)
Time: 22:38:23
(UTC+03:00)

ISS - Pass Details

Date: 07 May 2020
Orbit: 418 x 421 km, 51.6° (Epoch: 08 May)

Event Time Altitude Azimuth Distance (km) Brightness Sun altitude
Exits shadow 03:19:59 79° 336° (NNW) 430 -3.8 -20.3°
Maximum altitude 03:20:00 79° 338° (NNW) 430 -3.8 -20.3°
Drops below altitude 10° 03:23:22 10° 65° (ENE) 1,500 -0.2 -20.0°
Enters shadow 04:19:38 -69° 257° (WSW) 12,334 3.6 -14.2°
